<?xml version="1.0"?>
<gpx xmlns="http://www.topografix.com/GPX/1/1" xmlns:xsi="http://www.w3.org/2001/XMLSchema-instance" version="1.1" creator="GPX RubyGem 1.0.0 -- http://dougfales.github.io/gpx/" xsi:schemaLocation="http://www.topografix.com/GPX/1/1 http://www.topografix.com/GPX/1/1/gpx.xsd">
  <metadata>
    <name/>
    <time>2026-05-08T02:11:55+00:00</time>
    <bound minlat="90.0" minlon="180.0" maxlat="-90.0" maxlon="-180.0"/>
  </metadata>
  <trk>
    <name/>
    <trkseg>
      <trkpt lat="45.754302" lon="5.819639">
        <time>1970-01-01T00:00:00+00:00</time>
        <ele>713.0</ele>
      </trkpt>
      <trkpt lat="45.754102" lon="5.819904">
        <time>1970-01-01T00:00:00+00:00</time>
        <ele>715.0</ele>
      </trkpt>
      <trkpt lat="45.754003" lon="5.820081">
        <time>1970-01-01T00:00:00+00:00</time>
        <ele>716.0</ele>
      </trkpt>
      <trkpt lat="45.753969" lon="5.820209">
        <time>1970-01-01T00:00:00+00:00</time>
        <ele>717.0</ele>
      </trkpt>
      <trkpt lat="45.75397" lon="5.820357">
        <time>1970-01-01T00:00:00+00:00</time>
        <ele>717.0</ele>
      </trkpt>
      <trkpt lat="45.754055" lon="5.820546">
        <time>1970-01-01T00:00:00+00:00</time>
        <ele>719.0</ele>
      </trkpt>
      <trkpt lat="45.754175" lon="5.820642">
        <time>1970-01-01T00:00:00+00:00</time>
        <ele>720.0</ele>
      </trkpt>
      <trkpt lat="45.754242" lon="5.820668">
        <time>1970-01-01T00:00:00+00:00</time>
        <ele>720.0</ele>
      </trkpt>
      <trkpt lat="45.754289" lon="5.820958">
        <time>1970-01-01T00:00:00+00:00</time>
        <ele>724.0</ele>
      </trkpt>
      <trkpt lat="45.754479" lon="5.821231">
        <time>1970-01-01T00:00:00+00:00</time>
        <ele>729.0</ele>
      </trkpt>
      <trkpt lat="45.75436" lon="5.821351">
        <time>1970-01-01T00:00:00+00:00</time>
        <ele>733.0</ele>
      </trkpt>
      <trkpt lat="45.753993" lon="5.821525">
        <time>1970-01-01T00:00:00+00:00</time>
        <ele>737.0</ele>
      </trkpt>
      <trkpt lat="45.753788" lon="5.821691">
        <time>1970-01-01T00:00:00+00:00</time>
        <ele>740.0</ele>
      </trkpt>
      <trkpt lat="45.753598" lon="5.821886">
        <time>1970-01-01T00:00:00+00:00</time>
        <ele>742.0</ele>
      </trkpt>
      <trkpt lat="45.75341" lon="5.822155">
        <time>1970-01-01T00:00:00+00:00</time>
        <ele>745.0</ele>
      </trkpt>
      <trkpt lat="45.753199" lon="5.822164">
        <time>1970-01-01T00:00:00+00:00</time>
        <ele>748.0</ele>
      </trkpt>
      <trkpt lat="45.752891" lon="5.822295">
        <time>1970-01-01T00:00:00+00:00</time>
        <ele>751.0</ele>
      </trkpt>
      <trkpt lat="45.752756" lon="5.822282">
        <time>1970-01-01T00:00:00+00:00</time>
        <ele>752.0</ele>
      </trkpt>
      <trkpt lat="45.752634" lon="5.822222">
        <time>1970-01-01T00:00:00+00:00</time>
        <ele>752.0</ele>
      </trkpt>
      <trkpt lat="45.752481" lon="5.822109">
        <time>1970-01-01T00:00:00+00:00</time>
        <ele>751.0</ele>
      </trkpt>
      <trkpt lat="45.752204" lon="5.821744">
        <time>1970-01-01T00:00:00+00:00</time>
        <ele>748.0</ele>
      </trkpt>
      <trkpt lat="45.752091" lon="5.82169">
        <time>1970-01-01T00:00:00+00:00</time>
        <ele>750.0</ele>
      </trkpt>
      <trkpt lat="45.75203" lon="5.821709">
        <time>1970-01-01T00:00:00+00:00</time>
        <ele>750.0</ele>
      </trkpt>
      <trkpt lat="45.751666" lon="5.822039">
        <time>1970-01-01T00:00:00+00:00</time>
        <ele>754.0</ele>
      </trkpt>
      <trkpt lat="45.75146" lon="5.822172">
        <time>1970-01-01T00:00:00+00:00</time>
        <ele>756.0</ele>
      </trkpt>
      <trkpt lat="45.751264" lon="5.82227">
        <time>1970-01-01T00:00:00+00:00</time>
        <ele>759.0</ele>
      </trkpt>
      <trkpt lat="45.75073" lon="5.822468">
        <time>1970-01-01T00:00:00+00:00</time>
        <ele>769.0</ele>
      </trkpt>
      <trkpt lat="45.750453" lon="5.822598">
        <time>1970-01-01T00:00:00+00:00</time>
        <ele>775.0</ele>
      </trkpt>
      <trkpt lat="45.750348" lon="5.822685">
        <time>1970-01-01T00:00:00+00:00</time>
        <ele>778.0</ele>
      </trkpt>
      <trkpt lat="45.750321" lon="5.822884">
        <time>1970-01-01T00:00:00+00:00</time>
        <ele>780.0</ele>
      </trkpt>
      <trkpt lat="45.750319" lon="5.823072">
        <time>1970-01-01T00:00:00+00:00</time>
        <ele>780.0</ele>
      </trkpt>
      <trkpt lat="45.750286" lon="5.823125">
        <time>1970-01-01T00:00:00+00:00</time>
        <ele>781.0</ele>
      </trkpt>
      <trkpt lat="45.750112" lon="5.823113">
        <time>1970-01-01T00:00:00+00:00</time>
        <ele>786.0</ele>
      </trkpt>
      <trkpt lat="45.749827" lon="5.823203">
        <time>1970-01-01T00:00:00+00:00</time>
        <ele>791.0</ele>
      </trkpt>
      <trkpt lat="45.749533" lon="5.823255">
        <time>1970-01-01T00:00:00+00:00</time>
        <ele>796.0</ele>
      </trkpt>
      <trkpt lat="45.749444" lon="5.823162">
        <time>1970-01-01T00:00:00+00:00</time>
        <ele>796.0</ele>
      </trkpt>
      <trkpt lat="45.749366" lon="5.822978">
        <time>1970-01-01T00:00:00+00:00</time>
        <ele>797.0</ele>
      </trkpt>
      <trkpt lat="45.749216" lon="5.822919">
        <time>1970-01-01T00:00:00+00:00</time>
        <ele>800.0</ele>
      </trkpt>
      <trkpt lat="45.749024" lon="5.822994">
        <time>1970-01-01T00:00:00+00:00</time>
        <ele>801.0</ele>
      </trkpt>
      <trkpt lat="45.748532" lon="5.823383">
        <time>1970-01-01T00:00:00+00:00</time>
        <ele>808.0</ele>
      </trkpt>
      <trkpt lat="45.748379" lon="5.823792">
        <time>1970-01-01T00:00:00+00:00</time>
        <ele>811.0</ele>
      </trkpt>
      <trkpt lat="45.748224" lon="5.824014">
        <time>1970-01-01T00:00:00+00:00</time>
        <ele>815.0</ele>
      </trkpt>
      <trkpt lat="45.748153" lon="5.824168">
        <time>1970-01-01T00:00:00+00:00</time>
        <ele>814.0</ele>
      </trkpt>
      <trkpt lat="45.748214" lon="5.824265">
        <time>1970-01-01T00:00:00+00:00</time>
        <ele>814.0</ele>
      </trkpt>
      <trkpt lat="45.748255" lon="5.824372">
        <time>1970-01-01T00:00:00+00:00</time>
        <ele>814.0</ele>
      </trkpt>
      <trkpt lat="45.748232" lon="5.824474">
        <time>1970-01-01T00:00:00+00:00</time>
        <ele>811.0</ele>
      </trkpt>
      <trkpt lat="45.748232" lon="5.824474">
        <time>1970-01-01T00:00:00+00:00</time>
        <ele>811.0</ele>
      </trkpt>
      <trkpt lat="45.748255" lon="5.824372">
        <time>1970-01-01T00:00:00+00:00</time>
        <ele>814.0</ele>
      </trkpt>
      <trkpt lat="45.748214" lon="5.824265">
        <time>1970-01-01T00:00:00+00:00</time>
        <ele>814.0</ele>
      </trkpt>
      <trkpt lat="45.748153" lon="5.824168">
        <time>1970-01-01T00:00:00+00:00</time>
        <ele>814.0</ele>
      </trkpt>
      <trkpt lat="45.748224" lon="5.824014">
        <time>1970-01-01T00:00:00+00:00</time>
        <ele>815.0</ele>
      </trkpt>
      <trkpt lat="45.748379" lon="5.823792">
        <time>1970-01-01T00:00:00+00:00</time>
        <ele>811.0</ele>
      </trkpt>
      <trkpt lat="45.748532" lon="5.823383">
        <time>1970-01-01T00:00:00+00:00</time>
        <ele>808.0</ele>
      </trkpt>
      <trkpt lat="45.749024" lon="5.822994">
        <time>1970-01-01T00:00:00+00:00</time>
        <ele>801.0</ele>
      </trkpt>
      <trkpt lat="45.749216" lon="5.822919">
        <time>1970-01-01T00:00:00+00:00</time>
        <ele>800.0</ele>
      </trkpt>
      <trkpt lat="45.749366" lon="5.822978">
        <time>1970-01-01T00:00:00+00:00</time>
        <ele>797.0</ele>
      </trkpt>
      <trkpt lat="45.749444" lon="5.823162">
        <time>1970-01-01T00:00:00+00:00</time>
        <ele>796.0</ele>
      </trkpt>
      <trkpt lat="45.749533" lon="5.823255">
        <time>1970-01-01T00:00:00+00:00</time>
        <ele>796.0</ele>
      </trkpt>
      <trkpt lat="45.749827" lon="5.823203">
        <time>1970-01-01T00:00:00+00:00</time>
        <ele>791.0</ele>
      </trkpt>
      <trkpt lat="45.750112" lon="5.823113">
        <time>1970-01-01T00:00:00+00:00</time>
        <ele>786.0</ele>
      </trkpt>
      <trkpt lat="45.750286" lon="5.823125">
        <time>1970-01-01T00:00:00+00:00</time>
        <ele>781.0</ele>
      </trkpt>
      <trkpt lat="45.750319" lon="5.823072">
        <time>1970-01-01T00:00:00+00:00</time>
        <ele>780.0</ele>
      </trkpt>
      <trkpt lat="45.750321" lon="5.822884">
        <time>1970-01-01T00:00:00+00:00</time>
        <ele>780.0</ele>
      </trkpt>
      <trkpt lat="45.750348" lon="5.822685">
        <time>1970-01-01T00:00:00+00:00</time>
        <ele>778.0</ele>
      </trkpt>
      <trkpt lat="45.750453" lon="5.822598">
        <time>1970-01-01T00:00:00+00:00</time>
        <ele>775.0</ele>
      </trkpt>
      <trkpt lat="45.75073" lon="5.822468">
        <time>1970-01-01T00:00:00+00:00</time>
        <ele>769.0</ele>
      </trkpt>
      <trkpt lat="45.751264" lon="5.82227">
        <time>1970-01-01T00:00:00+00:00</time>
        <ele>759.0</ele>
      </trkpt>
      <trkpt lat="45.75146" lon="5.822172">
        <time>1970-01-01T00:00:00+00:00</time>
        <ele>756.0</ele>
      </trkpt>
      <trkpt lat="45.751666" lon="5.822039">
        <time>1970-01-01T00:00:00+00:00</time>
        <ele>754.0</ele>
      </trkpt>
      <trkpt lat="45.75203" lon="5.821709">
        <time>1970-01-01T00:00:00+00:00</time>
        <ele>750.0</ele>
      </trkpt>
      <trkpt lat="45.752091" lon="5.82169">
        <time>1970-01-01T00:00:00+00:00</time>
        <ele>750.0</ele>
      </trkpt>
      <trkpt lat="45.752204" lon="5.821744">
        <time>1970-01-01T00:00:00+00:00</time>
        <ele>748.0</ele>
      </trkpt>
      <trkpt lat="45.752481" lon="5.822109">
        <time>1970-01-01T00:00:00+00:00</time>
        <ele>751.0</ele>
      </trkpt>
      <trkpt lat="45.752634" lon="5.822222">
        <time>1970-01-01T00:00:00+00:00</time>
        <ele>752.0</ele>
      </trkpt>
      <trkpt lat="45.752756" lon="5.822282">
        <time>1970-01-01T00:00:00+00:00</time>
        <ele>752.0</ele>
      </trkpt>
      <trkpt lat="45.752891" lon="5.822295">
        <time>1970-01-01T00:00:00+00:00</time>
        <ele>751.0</ele>
      </trkpt>
      <trkpt lat="45.753199" lon="5.822164">
        <time>1970-01-01T00:00:00+00:00</time>
        <ele>748.0</ele>
      </trkpt>
      <trkpt lat="45.75341" lon="5.822155">
        <time>1970-01-01T00:00:00+00:00</time>
        <ele>745.0</ele>
      </trkpt>
      <trkpt lat="45.753598" lon="5.821886">
        <time>1970-01-01T00:00:00+00:00</time>
        <ele>742.0</ele>
      </trkpt>
      <trkpt lat="45.753788" lon="5.821691">
        <time>1970-01-01T00:00:00+00:00</time>
        <ele>740.0</ele>
      </trkpt>
      <trkpt lat="45.753993" lon="5.821525">
        <time>1970-01-01T00:00:00+00:00</time>
        <ele>737.0</ele>
      </trkpt>
      <trkpt lat="45.75436" lon="5.821351">
        <time>1970-01-01T00:00:00+00:00</time>
        <ele>733.0</ele>
      </trkpt>
      <trkpt lat="45.754479" lon="5.821231">
        <time>1970-01-01T00:00:00+00:00</time>
        <ele>729.0</ele>
      </trkpt>
      <trkpt lat="45.754289" lon="5.820958">
        <time>1970-01-01T00:00:00+00:00</time>
        <ele>724.0</ele>
      </trkpt>
      <trkpt lat="45.754242" lon="5.820668">
        <time>1970-01-01T00:00:00+00:00</time>
        <ele>720.0</ele>
      </trkpt>
      <trkpt lat="45.754175" lon="5.820642">
        <time>1970-01-01T00:00:00+00:00</time>
        <ele>720.0</ele>
      </trkpt>
      <trkpt lat="45.754055" lon="5.820546">
        <time>1970-01-01T00:00:00+00:00</time>
        <ele>719.0</ele>
      </trkpt>
      <trkpt lat="45.75397" lon="5.820357">
        <time>1970-01-01T00:00:00+00:00</time>
        <ele>717.0</ele>
      </trkpt>
      <trkpt lat="45.753969" lon="5.820209">
        <time>1970-01-01T00:00:00+00:00</time>
        <ele>717.0</ele>
      </trkpt>
      <trkpt lat="45.754003" lon="5.820081">
        <time>1970-01-01T00:00:00+00:00</time>
        <ele>716.0</ele>
      </trkpt>
      <trkpt lat="45.754102" lon="5.819904">
        <time>1970-01-01T00:00:00+00:00</time>
        <ele>715.0</ele>
      </trkpt>
      <trkpt lat="45.754302" lon="5.819639">
        <time>1970-01-01T00:00:00+00:00</time>
        <ele>713.0</ele>
      </trkpt>
    </trkseg>
  </trk>
</gpx>
